Time,TemperatureF,DewpointF,PressureIn,WindDirection,WindDirectionDegrees,WindSpeedMPH,WindSpeedGustMPH,Humidity,HourlyPrecipIn,Conditions,Clouds,dailyrainin,SoftwareType,DateUTC
2018-02-22 00:11:00,61.4,60.0,30.37,SE,134,0.0,0.0,95,0.00,,,0.00,weatherlink.com 1.10,2018-02-22 05:11:00,
2018-02-22 00:26:00,61.2,60.0,30.38,SE,134,0.0,0.0,95,0.00,,,0.00,weatherlink.com 1.10,2018-02-22 05:26:00,
2018-02-22 00:41:00,61.1,60.0,30.38,SE,134,0.0,0.0,96,0.00,,,0.00,weatherlink.com 1.10,2018-02-22 05:41:00,
2018-02-22 00:56:00,61.2,60.0,30.37,SE,134,0.0,0.0,96,0.00,,,0.00,weatherlink.com 1.10,2018-02-22 05:56:00,
2018-02-22 01:11:00,61.4,60.0,30.38,West,273,0.0,2.0,96,0.00,,,0.00,weatherlink.com 1.10,2018-02-22 06:11:00,
2018-02-22 01:26:00,61.5,60.0,30.37,West,273,0.0,0.0,96,0.00,,,0.00,weatherlink.com 1.10,2018-02-22 06:26:00,
2018-02-22 01:41:00,62.2,61.0,30.37,West,273,0.0,1.0,97,0.00,,,0.00,weatherlink.com 1.10,2018-02-22 06:41:00,
2018-02-22 01:56:00,62.3,61.0,30.37,West,273,0.0,0.0,96,0.00,,,0.00,weatherlink.com 1.10,2018-02-22 06:56:00,
2018-02-22 02:11:00,62.8,62.0,30.37,West,271,0.0,0.0,97,0.00,,,0.00,weatherlink.com 1.10,2018-02-22 07:11:00,
2018-02-22 02:26:00,63.4,63.0,30.37,WSW,246,0.0,2.0,97,0.00,,,0.00,weatherlink.com 1.10,2018-02-22 07:26:00,
2018-02-22 02:41:00,63.6,63.0,30.38,NW,304,0.0,1.0,96,0.00,,,0.00,weatherlink.com 1.10,2018-02-22 07:41:00,
2018-02-22 02:56:00,63.3,62.0,30.38,NW,304,0.0,0.0,96,0.00,,,0.00,weatherlink.com 1.10,2018-02-22 07:56:00,
2018-02-22 03:11:00,63.3,62.0,30.37,WNW,290,0.0,0.0,96,0.00,,,0.00,weatherlink.com 1.10,2018-02-22 08:11:00,
2018-02-22 03:26:00,63.3,62.0,30.37,West,270,0.0,1.0,96,0.00,,,0.00,weatherlink.com 1.10,2018-02-22 08:26:00,
2018-02-22 03:42:00,63.5,62.0,30.37,WNW,296,0.0,2.0,96,0.00,,,0.00,weatherlink.com 1.10,2018-02-22 08:42:00,
2018-02-22 03:56:00,63.5,62.0,30.37,WNW,295,0.0,4.0,96,0.00,,,0.00,weatherlink.com 1.10,2018-02-22 08:56:00,
2018-02-22 04:11:00,63.5,62.0,30.38,WSW,244,0.0,0.0,96,0.00,,,0.00,weatherlink.com 1.10,2018-02-22 09:11:00,
2018-02-22 04:26:00,63.2,62.0,30.38,WSW,244,0.0,0.0,96,0.00,,,0.00,weatherlink.com 1.10,2018-02-22 09:26:00,
2018-02-22 04:41:00,63.4,62.0,30.38,West,271,0.0,0.0,96,0.00,,,0.00,weatherlink.com 1.10,2018-02-22 09:41:00,
2018-02-22 04:56:00,63.5,62.0,30.39,West,280,0.0,1.0,96,0.00,,,0.00,weatherlink.com 1.10,2018-02-22 09:56:00,
2018-02-22 05:11:00,63.6,63.0,30.39,WSW,246,0.0,4.0,96,0.00,,,0.00,weatherlink.com 1.10,2018-02-22 10:11:00,
2018-02-22 05:26:00,63.6,63.0,30.39,West,260,0.0,3.0,96,0.00,,,0.00,weatherlink.com 1.10,2018-02-22 10:26:00,
2018-02-22 05:41:00,63.9,63.0,30.39,WNW,286,0.0,4.0,96,0.00,,,0.00,weatherlink.com 1.10,2018-02-22 10:41:00,
2018-02-22 05:56:00,64.0,63.0,30.39,WSW,238,0.0,6.0,96,0.00,,,0.00,weatherlink.com 1.10,2018-02-22 10:56:00,
2018-02-22 06:11:00,64.1,63.0,30.39,West,264,0.0,6.0,95,0.00,,,0.00,weatherlink.com 1.10,2018-02-22 11:11:00,
2018-02-22 06:26:00,64.0,63.0,30.40,NW,304,2.0,4.0,95,0.00,,,0.00,weatherlink.com 1.10,2018-02-22 11:26:00,
2018-02-22 06:41:00,64.0,63.0,30.41,WNW,294,0.0,6.0,95,0.00,,,0.00,weatherlink.com 1.10,2018-02-22 11:41:00,
2018-02-22 06:56:00,63.9,63.0,30.41,WSW,239,0.0,6.0,95,0.00,,,0.00,weatherlink.com 1.10,2018-02-22 11:56:00,
2018-02-22 07:11:00,63.9,63.0,30.42,SW,230,0.0,6.0,95,0.00,,,0.00,weatherlink.com 1.10,2018-02-22 12:11:00,
2018-02-22 07:26:00,63.9,63.0,30.42,West,259,0.0,7.0,95,0.00,,,0.00,weatherlink.com 1.10,2018-02-22 12:26:00,
2018-02-22 07:41:00,63.9,63.0,30.43,SW,229,0.0,5.0,95,0.00,,,0.00,weatherlink.com 1.10,2018-02-22 12:41:00,
2018-02-22 07:56:00,63.9,63.0,30.43,WNW,284,0.0,7.0,95,0.00,,,0.00,weatherlink.com 1.10,2018-02-22 12:56:00,
2018-02-22 08:11:00,63.9,63.0,30.43,NNW,331,0.0,6.0,96,0.00,,,0.00,weatherlink.com 1.10,2018-02-22 13:11:00,
2018-02-22 08:26:00,64.0,63.0,30.43,SW,217,0.0,5.0,96,0.00,,,0.00,weatherlink.com 1.10,2018-02-22 13:26:00,
2018-02-22 08:42:00,64.1,63.0,30.44,West,269,4.0,6.0,96,0.00,,,0.00,weatherlink.com 1.10,2018-02-22 13:42:00,
2018-02-22 08:57:00,64.3,63.0,30.44,WNW,287,0.0,3.0,96,0.00,,,0.00,weatherlink.com 1.10,2018-02-22 13:57:00,
2018-02-22 09:12:00,64.4,63.0,30.45,West,269,0.0,5.0,96,0.00,,,0.00,weatherlink.com 1.10,2018-02-22 14:12:00,
2018-02-22 09:27:00,64.5,63.0,30.45,West,261,1.0,5.0,96,0.00,,,0.00,weatherlink.com 1.10,2018-02-22 14:27:00,
2018-02-22 09:42:00,64.8,64.0,30.46,WNW,284,0.0,6.0,96,0.00,,,0.00,weatherlink.com 1.10,2018-02-22 14:42:00,
2018-02-22 09:57:00,65.0,64.0,30.45,West,265,0.0,5.0,96,0.00,,,0.00,weatherlink.com 1.10,2018-02-22 14:57:00,
2018-02-22 10:12:00,65.2,64.0,30.46,West,281,3.0,7.0,96,0.00,,,0.00,weatherlink.com 1.10,2018-02-22 15:12:00,
2018-02-22 10:27:00,65.7,64.0,30.45,WNW,289,3.0,8.0,95,0.00,,,0.00,weatherlink.com 1.10,2018-02-22 15:27:00,
2018-02-22 10:42:00,66.5,65.0,30.45,North,355,0.0,7.0,94,0.00,,,0.00,weatherlink.com 1.10,2018-02-22 15:42:00,
2018-02-22 10:57:00,67.2,65.0,30.45,West,278,3.0,6.0,92,0.00,,,0.00,weatherlink.com 1.10,2018-02-22 15:57:00,
2018-02-22 11:12:00,67.3,64.0,30.45,WNW,287,3.0,7.0,90,0.00,,,0.00,weatherlink.com 1.10,2018-02-22 16:12:00,
2018-02-22 11:27:00,67.3,64.0,30.45,West,261,0.0,5.0,90,0.00,,,0.00,weatherlink.com 1.10,2018-02-22 16:27:00,
2018-02-22 11:42:00,67.4,64.0,30.45,WNW,295,0.0,2.0,89,0.00,,,0.00,weatherlink.com 1.10,2018-02-22 16:42:00,
2018-02-22 11:57:00,67.5,64.0,30.44,WNW,291,0.0,4.0,89,0.00,,,0.00,weatherlink.com 1.10,2018-02-22 16:57:00,
2018-02-22 12:12:00,67.5,65.0,30.44,North,360,0.0,1.0,90,0.00,,,0.00,weatherlink.com 1.10,2018-02-22 17:12:00,
2018-02-22 12:27:00,67.6,64.0,30.43,NW,314,0.0,3.0,89,0.00,,,0.00,weatherlink.com 1.10,2018-02-22 17:27:00,
2018-02-22 12:42:00,68.0,65.0,30.43,NW,324,0.0,4.0,89,0.00,,,0.00,weatherlink.com 1.10,2018-02-22 17:42:00,
2018-02-22 12:57:00,69.3,65.0,30.42,West,272,4.0,5.0,87,0.00,,,0.00,weatherlink.com 1.10,2018-02-22 17:57:00,
2018-02-22 13:12:00,70.5,66.0,30.41,West,259,5.0,7.0,84,0.00,,,0.00,weatherlink.com 1.10,2018-02-22 18:12:00,
2018-02-22 13:27:00,71.1,66.0,30.41,NW,304,0.0,8.0,83,0.00,,,0.00,weatherlink.com 1.10,2018-02-22 18:27:00,
2018-02-22 13:42:00,71.9,65.0,30.40,West,279,3.0,7.0,79,0.00,,,0.00,weatherlink.com 1.10,2018-02-22 18:42:00,
2018-02-22 13:57:00,73.2,66.0,30.39,West,273,4.0,8.0,78,0.00,,,0.00,weatherlink.com 1.10,2018-02-22 18:57:00,
2018-02-22 14:12:00,74.1,66.0,30.38,West,267,6.0,11.0,76,0.00,,,0.00,weatherlink.com 1.10,2018-02-22 19:12:00,
2018-02-22 14:27:00,75.0,66.0,30.37,WSW,258,1.0,8.0,73,0.00,,,0.00,weatherlink.com 1.10,2018-02-22 19:27:00,
2018-02-22 14:42:00,75.8,66.0,30.37,WNW,285,2.0,8.0,71,0.00,,,0.00,weatherlink.com 1.10,2018-02-22 19:42:00,
2018-02-22 14:57:00,76.0,65.0,30.36,WSW,253,7.0,11.0,69,0.00,,,0.00,weatherlink.com 1.10,2018-02-22 19:57:00,
2018-02-22 15:12:00,75.7,65.0,30.35,West,272,1.0,11.0,70,0.00,,,0.00,weatherlink.com 1.10,2018-02-22 20:12:00,
2018-02-22 15:27:00,75.3,64.0,30.35,West,266,6.0,10.0,69,0.00,,,0.00,weatherlink.com 1.10,2018-02-22 20:27:00,
2018-02-22 15:42:00,75.9,65.0,30.34,West,263,0.0,8.0,69,0.00,,,0.00,weatherlink.com 1.10,2018-02-22 20:42:00,
2018-02-22 16:04:00,77.5,64.0,30.34,WNW,289,6.0,11.0,64,0.00,,,0.00,weatherlink.com 1.10,2018-02-22 21:04:00,
2018-02-22 16:13:00,76.9,63.0,30.34,SW,221,6.0,11.0,63,0.00,,,0.00,weatherlink.com 1.10,2018-02-22 21:13:00,
2018-02-22 16:28:00,77.0,63.0,30.34,WNW,300,2.0,10.0,63,0.00,,,0.00,weatherlink.com 1.10,2018-02-22 21:28:00,
2018-02-22 16:43:00,77.3,63.0,30.34,West,270,3.0,7.0,61,0.00,,,0.00,weatherlink.com 1.10,2018-02-22 21:43:00,
2018-02-22 16:58:00,76.5,63.0,30.34,NNW,341,3.0,9.0,64,0.00,,,0.00,weatherlink.com 1.10,2018-02-22 21:58:00,
2018-02-22 17:13:00,76.0,64.0,30.34,West,264,0.0,7.0,66,0.00,,,0.00,weatherlink.com 1.10,2018-02-22 22:13:00,
2018-02-22 17:28:00,75.2,63.0,30.34,SW,229,0.0,7.0,67,0.00,,,0.00,weatherlink.com 1.10,2018-02-22 22:28:00,
2018-02-22 17:43:00,74.6,63.0,30.34,West,263,2.0,5.0,68,0.00,,,0.00,weatherlink.com 1.10,2018-02-22 22:43:00,
2018-02-22 17:58:00,73.8,63.0,30.34,West,276,4.0,7.0,69,0.00,,,0.00,weatherlink.com 1.10,2018-02-22 22:58:00,
2018-02-22 18:13:00,73.1,63.0,30.35,WNW,284,0.0,4.0,70,0.00,,,0.00,weatherlink.com 1.10,2018-02-22 23:13:00,
2018-02-22 18:28:00,72.3,63.0,30.35,WNW,284,0.0,0.0,72,0.00,,,0.00,weatherlink.com 1.10,2018-02-22 23:28:00,